www.pogodaiklimat.ru

Погода и климат >> Архив погоды >> Россия >> Краснодарский край >> Славянск-на-Кубани


ПОГОДА в Славянске-на-Кубани

  • Прогноз погоды в Славянске-на-Кубани
  • Монитор погоды в Славянске-на-Кубани

АРХИВ ПОГОДЫ в Славянске-на-Кубани

Время (UTC), дата Ветер
(напр.,м/с)
 
Видим.   Явления Облачность Т
(С)
Тd
(С)
f
(%)
Тe
(С)
Тes
(С)
Комфортность P
(гПа)
Po
(гПа)
Тmin
(С)
Tmax
(С)
R
(мм)
R24
(мм)
S
(см)
06 17.07 З 1 10 км 8/3 600 м
[Cu hum Ci]
+24.2 +18.5 70 +29 +35 душно 1008.3 1007.2
09 17.07 С 2 10 км 9/8 600 м
[Cu med, cong Ci fib]
+27.3 +14.6 46 +30 +33 душно 1007.7 1006.7
12 17.07 СЗ 2 10 км 10/8 600 м
[Cb calv Ci fib]
+25.7 +15.5 53 +29 +31 душно 1007.2 1006.2
15 17.07 СЗ 2 10 км 6/0
[Ac trans Ci fib]
+27.1 +15.4 49 +30 +32 душно 1006.7 1005.7 +27.5
18 17.07 С 1 10 км 4/0
[Ac trans Ci fib]
+20.7 +15.3 71 +25 +25 комфорт 1007.2 1006.1
21 17.07 С 1 10 км 3/0
[Ac trans]
+18.8 +16.3 85 +21 +21 комфорт 1007.1 1006.0
00 18.07 СВ 1 10 км 8/0
[Ci]
+19.0 +17.1 89 +22 +22 комфорт 1007.0 1005.9
03 18.07 С 1 10 км 10/0
[Ac trans Ci]
+18.5 +16.9 90 +20 +21 1007.1 1006.0 +18.0
06 18.07 С 2 10 км 9/5 600 м
[Sc Ac trans]
+22.8 +16.1 66 +27 +30 душно 1007.1 1006.0
09 18.07 В 3 10 км 10/3 600 м
[Cu med, cong Ac und]
+25.8 +14.9 51 +29 +32 душно 1007.6 1006.6
12 18.07 СВ 2 10 км 10/0
[Ac As Ci]
+26.8 +15.2 49 +30 +36 душно 1008.2 1007.1
15 18.07 В 2 10 км 10/0
[Ac trans Ci]
+25.3 +16.9 60 +29 +31 душно 1009.1 1008.1 +27.3
18 18.07 СВ 1 10 км 4/0
[Ci fib]
+19.7 +16.8 83 +23 +23 комфорт 1010.5 1009.5
21 18.07 В 1 10 км 3/0
[Ci fib]
+17.6 +16.4 93 +19 +19 1011.7 1010.6
00 19.07 штиль 0 4000 м дымка 3/0
[Ci fib]
+16.1 +15.1 94 +16 +16 1012.2 1011.2
03 19.07 штиль 0 200 м туман 4/0
[Ci fib]
+15.9 +14.9 94 +16 +16 1013.3 1012.2 +14.8
06 19.07 СВ 1 10 км {туман} 4/0
[Ci fib]
+22.7 +18.8 79 +29 +39 очень
душно
1014.4 1013.3
09 19.07 С 2 10 км 4/3 600 м
[Cu med, cong Ci fib]
+27.0 +17.4 56 +31 +43 душно 1014.5 1013.4
12 19.07 СЗ 4 10 км 4/3 600 м
[Cu med, cong Ac trans]
+28.5 +12.8 38 +30 +36 жарко 1014.4 1013.4
15 19.07 СЗ 2 10 км 8/0
[Ac trans Cc]
+26.0 +8.2 32 +26 +27 жарко 1015.1 1014.0 +28.8
18 19.07 З 1 10 км 4/0
[Ac trans]
+19.2 +13.3 69 +22 +22 комфорт 1016.3 1015.2
21 19.07 штиль 0 10 км 8/0
[Ac trans Cc]
+15.6 +14.1 91 +15 +15 1017.2 1016.1
00 20.07 штиль 0 4000 м дымка 3/0
[Ci fib]
+14.3 +13.3 94 +14 +14 1017.3 1016.2
03 20.07 штиль 0 4000 м дымка 3/0
[Cc]
+15.0 +14.0 94 +15 +15 1017.9 1016.8 +13.7
06 20.07 СВ 1 10 км 4/0
[Ci fib]
+25.1 +17.1 61 +29 +39 душно 1018.1 1017.0
09 20.07 СВ 1 10 км 3/0
[Ci fib]
+28.9 +11.4 34 +30 +50 жарко 1017.5 1016.4
12 20.07 СВ 2 10 км 6/0
[Ci]
+30.7 +10.2 28 +30 +42 жарко 1016.6 1015.6
15 20.07 С 3 10 км 8/0
[Ci]
+28.1 +13.4 40 +30 +31 жарко 1016.1 1015.0 +30.9
18 20.07 С 3 10 км 8/0
[Ac trans Ci]
+23.6 +13.1 52 +26 +26 жарко 1016.0 1014.9
21 20.07 С 2 10 км 3/0
[Ci fib]
+21.1 +13.8 63 +24 +24 комфорт 1016.1 1015.0
00 21.07 С 2 10 км 4/0
[Ac trans Ci fib]
+20.7 +12.2 58 +24 +24 комфорт 1015.4 1014.4
03 21.07 СВ 1 10 км 9/0
[Ac trans]
+20.5 +12.7 61 +24 +24 комфорт 1015.1 1014.0 +20.1
06 21.07 СВ 1 10 км 10/0
[Ac und]
+23.9 +15.4 59 +27 +30 жарко 1015.2 1014.1
09 21.07 В 2 10 км 8/0
[Ac As]
+28.1 +16.9 51 +32 +40 душно 1014.7 1013.6
12 21.07 В 2 10 км 9/3 600 м
[Cu med, cong Ac As]
+26.1 +18.0 61 +31 +34 очень
душно
1014.8 1013.7
15 21.07 В 2 4000 м слаб. ливневой дождь 9/5 600 м
[Cb cap Ac As]
+22.3 +19.7 85 +28 +29 душно 1014.9 1013.8 +29.1 0.5
18 21.07 В 2 10 км {ливн. осадки} 8/3 600 м
[Cb calv Ac As]
+20.8 +18.8 88 +26 +26 душно 1016.3 1015.3
21 21.07 В 1 10 км 3/0
[Ac trans]
+19.0 +17.4 90 +22 +22 комфорт 1016.9 1015.9
00 22.07 С 1 4000 м дымка ясно +17.2 +16.1 93 +18 +18 1016.8 1015.7
03 22.07 В 2 10 км ясно +17.8 +16.7 93 +18 +19 1016.8 1015.7 +16.8 0.0
06 22.07 В 3 10 км {туман} 3/3 600 м
[Cu hum]
+22.6 +17.5 73 +28 +33 душно 1016.6 1015.5
09 22.07 В 2 10 км 3/3 600 м
[Cu hum]
+26.4 +17.0 56 +30 +43 душно 1016.1 1015.1
12 22.07 В 3 10 км 4/4 600 м
[Cu hum]
+28.6 +16.1 47 +32 +38 душно 1015.2 1014.1
15 22.07 В 2 10 км 3/3 600 м
[Cu hum]
+28.7 +15.3 44 +31 +33 жарко 1014.4 1013.4 +29.3
18 22.07 штиль 0 10 км 3/0
[Ci fib]
+22.1 +17.6 76 +27 +27 душно 1014.6 1013.5
21 22.07 С 1 10 км ясно +19.8 +18.3 91 +24 +24 комфорт 1014.4 1013.3
00 23.07 штиль 0 10 км ясно +17.8 +16.7 93 +18 +18 1013.4 1012.3
03 23.07 С 1 4000 м дымка ясно +17.8 +16.8 94 +19 +20 1012.8 1011.7 +16.7
06 23.07 В 2 10 км ясно +25.5 +17.0 59 +29 +39 душно 1012.4 1011.3
09 23.07 В 2 10 км 3/3 600 м
[Cu hum Ac trans]
+29.0 +16.3 46 +32 +45 душно 1011.1 1010.1
12 23.07 В 2 10 км 8/8 600 м
[Cu hum]
+30.3 +15.0 39 +32 +35 жарко 1009.4 1008.4
15 23.07 В 2 10 км 9/6 600 м
[Cu med, cong Ac trans Ci fib]
+29.5 +14.3 39 +31 +32 жарко 1009.0 1008.0 +31.0
18 23.07 С 1 10 км 6/3 600 м
[Cb calv Cc]
+21.3 +17.6 79 +25 +25 комфорт 1009.3 1008.2
21 23.07 С 1 10 км 1/0
[Ci fib]
+22.1 +18.2 79 +27 +27 душно 1008.9 1007.9
03 24.07 штиль 0 4000 м дымка 4/0
[Ac trans Ci sp]
+18.2 +16.9 92 +19 +19 1007.9 1006.8 +18.0

 

Местоположение метеостанции Славянск-на-Кубани (Краснодарский край, Россия): широта 45.28 долгота 38.12 высота над уровнем моря 9 м.

В архиве по умолчанию представлена погода в Славянске-на-Кубани за последнюю неделю. Архивные данные за месяц целиком и за предыдущие месяцы, начиная с января 2011 года, Вы можете получить, выбрав интересующий диапазон дат из раскрывающегося списка и нажав кнопку "Ввод!".


*Определитесь, кто Вы:
робот инопланетянин человек

Внимание! Время в таблицах - всемирное. Для получения местного времени необходимо прибавить поправку, которая равна 3 ч.

Смотрите также архив погоды в соседних городах и на ближайших метеорологических станциях:

Погода в Крымске (Краснодарский край, Россия) (41 км)
Погода в Темрюке (Краснодарский край, Россия) (58 км)
Погода в Новороссийске (Краснодарский край, Россия) (66 км)
Погода в Тимашевске (Краснодарский край, Россия) (74 км)
Погода в Краснодаре (Краснодарский край, Россия) (76 км)
Погода в Геленджике (Краснодарский край, Россия) (79 км)
Погода в Анапе (Краснодарский край, Россия) (80 км)
Погода в Приморско-Ахтарске (Краснодарский край, Россия) (83 км)
Погода в Горячем Ключе (Краснодарский край, Россия) (106 км)
Погода в Кореновске (Краснодарский край, Россия) (108 км)

Пояснения к столбцам:

Ветер - указаны скорость ветра в м/с - средняя за 10 мин, порывы в срок и между сроками (в фигурных скобках) и направление, откуда дует ветер: С - северный, СВ - северо-восточный, В - восточный, ЮВ - юго-восточный, Ю - южный, ЮЗ - юго-западный, З - западный, СЗ - северо-западный.
Видимость - горизонтальная дальность видимости в метрах или километрах. При видимости от 1 до 10 км при отсутствии осадков обычно наблюдается дымка, при ухудшении видимости до 1 км и менее - туман. В сухую погоду видимость может ухудшаться дымом, пылью или мглою.
Явления - указаны атмосферные явления, наблюдавшиеся в срок или в последний час перед сроком; фигурными скобками обозначены явления, наблюдавшиеся между сроками (за 1-3 часа до срока); квадратными скобками обозначены град или гололедные отложения с указанием их диаметра в мм.
Облачность - указаны через наклонную черту общая и нижняя облачность в баллах и высота нижней границы облаков в метрах; квадратными скобками обозначены формы облаков: Ci - перистые, Cs - перисто-слоистые, Cc - перисто-кучевые, Ac - высококучевые, As - высокослоистые, Sc - слоисто-кучевые, Ns - слоисто-дождевые, Cu - кучевые, Cb - кучево-дождевые. Подробнее классификацию облаков см. в Атласе облаков (PDF).
T - Температура воздуха - температура, измеренная на высоте 2 м над землей.
Td - Температура точки росы - температура, при понижении до которой содержащийся в воздухе водяной пар достигнет насыщения.
f - Относительная влажность воздуха - влажноcть воздуха, измеренная на высоте 2 м над землей.
Te - Эффективная температура - температура, которую ощущает одетый по сезону человек в тени. Характеристика душности погоды. При расчете учитывается влияние влажности воздуха и скорости ветра на теплоощущения человека.
Tes - Эффективная температура на солнце - температура, которую ощущает человек, с поправкой на солнечный нагрев. Характеристика знойности погоды. Зависит от высоты солнца над горизонтом, облачности и скорости ветра. Ночью, в пасмурную погоду, а также при ветре 12 м/с и более поправка равна нулю.
P - Атмосферное давление - приведенное к уровню моря атмосферное давление.
Po - Атмосферное давление - измеренное на уровне метеостанции атмосферное давление.
Tmin - Минимальная температура - минимум температуры воздуха на высоте 2 м над землей.
Tmax - Максимальная температура - максимум температуры воздуха на высоте 2 м над землей.
R - Количество осадков - Количество выпавших осадков за период времени, мм. При наведении курсора мыши на число - период времени, за который выпало указанное количество осадков.
R24 - Количество осадков - Количество выпавших осадков за 24 часа, мм.
S - Снежный покров - Высота снежного покрова, см. При наведении курсора мыши на число - состояние снежного покрова и степень покрытия местности в баллах.